When you browse on this site, cookies collect data to enhance your experience and personalize the content and advertising you see.
Visit our Privacy Policy to learn more. By continuing to use the site, you agree to this use of cookies and data.
  • en Suisse
  • Liste des pays
  • À 7 jours
  • Température de l'eau
  • Carte satellitaire
  • Carte météo
  • Widgets météo
  • user-avatar
    Se connecter

    Météo par heure à Bolshoe Kasimovo

    Ce jour, 22 Juillet, Lundi

    Heure Température Précipitation Vent Pression Humidité
    00:00 +16°C° 0 mm 1 m/s 749 mmHg 90%
    01:00 +15°C° 0 mm 1 m/s 749 mmHg 91%
    02:00 +14°C° 0 mm 0 m/s 749 mmHg 91%
    03:00 +14°C° 0 mm 0 m/s 749 mmHg 91%
    04:00 +15°C° 0 mm 0 m/s 749 mmHg 91%
    05:00 +16°C° 0 mm 1 m/s 749 mmHg 91%
    06:00 +19°C° 0 mm 1 m/s 749 mmHg 87%
    07:00 +20°C° 0 mm 1 m/s 749 mmHg 82%
    08:00 +22°C° 0 mm 1 m/s 749 mmHg 76%
    09:00 +23°C° 0 mm 1 m/s 749 mmHg 71%
    10:00 +24°C° 0 mm 1 m/s 748 mmHg 66%
    11:00 +25°C° 0 mm 1 m/s 748 mmHg 61%
    12:00 +26°C° 0 mm 1 m/s 748 mmHg 59%
    13:00 +26°C° 0 mm 2 m/s 748 mmHg 57%
    14:00 +26°C° 0 mm 2 m/s 747 mmHg 55%
    15:00 +26°C° 0 mm 2 m/s 747 mmHg 60%
    16:00 +26°C° 0 mm 2 m/s 747 mmHg 64%
    17:00 +26°C° 0 mm 2 m/s 747 mmHg 68%
    18:00 +24°C° 0.2 mm 2 m/s 746 mmHg 74%
    19:00 +21°C° 0.2 mm 2 m/s 746 mmHg 80%
    20:00 +19°C° 0.2 mm 2 m/s 746 mmHg 85%
    21:00 +19°C° 0.1 mm 2 m/s 746 mmHg 88%
    22:00 +19°C° 0.1 mm 1 m/s 746 mmHg 90%
    23:00 +19°C° 0.1 mm 1 m/s 745 mmHg 93%

    Demain, 23 Juillet, Mardi

    Heure Température Précipitation Vent Pression Humidité
    00:00 +18°C° 0.4 mm 2 m/s 745 mmHg 93%
    01:00 +18°C° 0.4 mm 2 m/s 745 mmHg 93%
    02:00 +18°C° 0.4 mm 2 m/s 745 mmHg 93%
    03:00 +18°C° 0.1 mm 3 m/s 744 mmHg 94%
    04:00 +18°C° 0.1 mm 3 m/s 744 mmHg 95%
    05:00 +18°C° 0.1 mm 4 m/s 744 mmHg 95%
    06:00 +18°C° 0.1 mm 4 m/s 744 mmHg 93%
    07:00 +19°C° 0.1 mm 4 m/s 743 mmHg 91%
    08:00 +20°C° 0.1 mm 4 m/s 743 mmHg 89%
    09:00 +20°C° 0.1 mm 4 m/s 743 mmHg 84%
    10:00 +21°C° 0.1 mm 4 m/s 743 mmHg 80%
    11:00 +22°C° 0.1 mm 4 m/s 743 mmHg 75%
    12:00 +24°C° 0 mm 3 m/s 743 mmHg 71%
    13:00 +24°C° 0 mm 3 m/s 743 mmHg 68%
    14:00 +25°C° 0 mm 3 m/s 743 mmHg 65%
    15:00 +24°C° 0.1 mm 2 m/s 743 mmHg 67%
    16:00 +24°C° 0.1 mm 2 m/s 743 mmHg 69%
    17:00 +24°C° 0.1 mm 2 m/s 743 mmHg 71%
    18:00 +22°C° 0 mm 1 m/s 743 mmHg 77%
    19:00 +21°C° 0 mm 1 m/s 743 mmHg 83%
    20:00 +17°C° 0 mm 0 m/s 743 mmHg 90%
    21:00 +17°C° 0.1 mm 0 m/s 743 mmHg 90%
    22:00 +16°C° 0.1 mm 0 m/s 743 mmHg 91%
    23:00 +16°C° 0.1 mm 0 m/s 743 mmHg 92%

    Après-demain, 24 Juillet, Mercredi

    Heure Température Précipitation Vent Pression Humidité
    00:00 +18°C° 0 mm 1 m/s 743 mmHg 92%
    01:00 +18°C° 0 mm 1 m/s 743 mmHg 93%
    02:00 +18°C° 0 mm 1 m/s 743 mmHg 94%
    03:00 +18°C° 0.4 mm 1 m/s 743 mmHg 94%
    04:00 +17°C° 0.4 mm 2 m/s 743 mmHg 95%
    05:00 +17°C° 0.4 mm 2 m/s 743 mmHg 95%
    06:00 +17°C° 1 mm 2 m/s 743 mmHg 93%
    07:00 +17°C° 1 mm 3 m/s 743 mmHg 92%
    08:00 +17°C° 1 mm 3 m/s 743 mmHg 90%
    09:00 +17°C° 0.1 mm 3 m/s 743 mmHg 89%
    10:00 +17°C° 0.1 mm 3 m/s 743 mmHg 88%
    11:00 +18°C° 0.1 mm 2 m/s 743 mmHg 86%
    12:00 +18°C° 0 mm 2 m/s 743 mmHg 85%
    13:00 +18°C° 0 mm 2 m/s 743 mmHg 84%
    14:00 +18°C° 0 mm 2 m/s 743 mmHg 83%
    15:00 +19°C° 0 mm 1 m/s 743 mmHg 83%
    16:00 +19°C° 0 mm 1 m/s 743 mmHg 82%
    17:00 +19°C° 0 mm 1 m/s 743 mmHg 81%
    18:00 +19°C° 0 mm 1 m/s 743 mmHg 83%
    19:00 +18°C° 0 mm 1 m/s 743 mmHg 85%
    20:00 +16°C° 0 mm 1 m/s 743 mmHg 87%
    21:00 +15°C° 0 mm 1 m/s 743 mmHg 89%
    22:00 +15°C° 0 mm 1 m/s 743 mmHg 91%
    23:00 +14°C° 0 mm 1 m/s 743 mmHg 94%

    25 Juillet, Jeudi

    Heure Température Précipitation Vent Pression Humidité
    00:00 +14°C° 0 mm 1 m/s 743 mmHg 94%
    01:00 +14°C° 0 mm 1 m/s 743 mmHg 94%
    02:00 +13°C° 0 mm 1 m/s 743 mmHg 94%
    03:00 +13°C° 0 mm 0 m/s 743 mmHg 94%
    04:00 +13°C° 0 mm 0 m/s 743 mmHg 94%
    05:00 +13°C° 0 mm 0 m/s 743 mmHg 94%
    06:00 +15°C° 0 mm 0 m/s 743 mmHg 88%
    07:00 +19°C° 0 mm 1 m/s 743 mmHg 83%
    08:00 +20°C° 0 mm 1 m/s 743 mmHg 78%
    09:00 +21°C° 0 mm 1 m/s 744 mmHg 76%
    10:00 +21°C° 0 mm 2 m/s 744 mmHg 74%
    11:00 +23°C° 0 mm 2 m/s 744 mmHg 72%
    12:00 +23°C° 0.5 mm 2 m/s 744 mmHg 73%
    13:00 +22°C° 0.5 mm 3 m/s 744 mmHg 74%
    14:00 +24°C° 0.5 mm 3 m/s 744 mmHg 75%
    15:00 +22°C° 0.6 mm 4 m/s 744 mmHg 80%
    16:00 +21°C° 0.6 mm 4 m/s 744 mmHg 84%
    17:00 +20°C° 0.6 mm 5 m/s 744 mmHg 88%
    18:00 +19°C° 0 mm 4 m/s 744 mmHg 91%
    19:00 +18°C° 0 mm 4 m/s 744 mmHg 93%
    20:00 +17°C° 0 mm 3 m/s 745 mmHg 96%
    21:00 +17°C° 0 mm 3 m/s 745 mmHg 96%
    22:00 +17°C° 0 mm 3 m/s 745 mmHg 97%
    23:00 +16°C° 0 mm 3 m/s 745 mmHg 97%

    26 Juillet, Vendredi

    Heure Température Précipitation Vent Pression Humidité
    00:00 +16°C° 0 mm 3 m/s 744 mmHg 97%
    01:00 +16°C° 0 mm 3 m/s 744 mmHg 97%
    02:00 +16°C° 0 mm 3 m/s 744 mmHg 96%
    03:00 +17°C° 0 mm 3 m/s 744 mmHg 96%
    04:00 +17°C° 0 mm 4 m/s 744 mmHg 95%
    05:00 +17°C° 0 mm 4 m/s 744 mmHg 95%
    06:00 +17°C° 0 mm 5 m/s 744 mmHg 92%
    07:00 +19°C° 0 mm 5 m/s 744 mmHg 90%
    08:00 +20°C° 0 mm 5 m/s 744 mmHg 87%
    09:00 +21°C° 0.2 mm 5 m/s 744 mmHg 85%
    10:00 +22°C° 0.2 mm 5 m/s 744 mmHg 83%
    11:00 +22°C° 0.2 mm 5 m/s 745 mmHg 82%
    12:00 +22°C° 0.2 mm 4 m/s 744 mmHg 83%
    13:00 +22°C° 0.2 mm 3 m/s 744 mmHg 84%
    14:00 +21°C° 0.2 mm 2 m/s 744 mmHg 86%
    15:00 +23°C° 1 mm 2 m/s 744 mmHg 85%
    16:00 +22°C° 1 mm 3 m/s 744 mmHg 85%
    17:00 +22°C° 1 mm 3 m/s 744 mmHg 84%
    18:00 +21°C° 0.2 mm 3 m/s 744 mmHg 86%
    19:00 +20°C° 0.2 mm 2 m/s 744 mmHg 88%
    20:00 +19°C° 0.2 mm 2 m/s 744 mmHg 90%
    21:00 +19°C° 0 mm 2 m/s 744 mmHg 91%
    22:00 +19°C° 0 mm 3 m/s 744 mmHg 92%
    23:00 +18°C° 0 mm 3 m/s 744 mmHg 93%

    27 Juillet, Samedi

    Heure Température Précipitation Vent Pression Humidité
    00:00 +18°C° 0.2 mm 3 m/s 744 mmHg 93%
    01:00 +18°C° 0.2 mm 4 m/s 744 mmHg 93%
    02:00 +18°C° 0.2 mm 4 m/s 743 mmHg 94%
    03:00 +18°C° 0 mm 4 m/s 744 mmHg 94%
    04:00 +18°C° 0 mm 3 m/s 744 mmHg 95%
    05:00 +18°C° 0 mm 3 m/s 744 mmHg 96%
    06:00 +19°C° 0.1 mm 3 m/s 744 mmHg 93%
    07:00 +20°C° 0.1 mm 4 m/s 744 mmHg 90%
    08:00 +21°C° 0.1 mm 4 m/s 744 mmHg 87%
    09:00 +22°C° 0.5 mm 4 m/s 744 mmHg 83%
    10:00 +23°C° 0.5 mm 4 m/s 744 mmHg 79%
    11:00 +26°C° 0.5 mm 4 m/s 744 mmHg 75%
    12:00 +26°C° 0.8 mm 5 m/s 743 mmHg 73%
    13:00 +26°C° 0.8 mm 5 m/s 743 mmHg 72%
    14:00 +27°C° 0.8 mm 5 m/s 743 mmHg 71%
    15:00 +26°C° 0.2 mm 5 m/s 743 mmHg 73%
    16:00 +26°C° 0.2 mm 4 m/s 743 mmHg 74%
    17:00 +26°C° 0.2 mm 4 m/s 743 mmHg 76%
    18:00 +25°C° 0.1 mm 4 m/s 743 mmHg 80%
    19:00 +22°C° 0.1 mm 3 m/s 743 mmHg 84%
    20:00 +21°C° 0.1 mm 3 m/s 743 mmHg 89%
    21:00 +20°C° 0 mm 3 m/s 743 mmHg 90%
    22:00 +19°C° 0 mm 3 m/s 743 mmHg 92%
    23:00 +19°C° 0 mm 3 m/s 743 mmHg 94%
    Voir plus